Location: Vihti�l�
(61.3833°N, 23.0667°E)
Time: 05:46:22
(UTC+00:00)

SL-8 Rocket - Pass Details

Date: 29 November 2020
Orbit: 958 x 990 km, 82.9° (Epoch: 22 January)

Event Time Altitude Azimuth Distance (km) Brightness Sun altitude
Rises 05:35:35 0° 194° (SSW) 3,633 7.2 -9.9°
Reaches altitude 10° 05:38:05 10° 196° (SSW) 2,691 6.5 -9.6°
Maximum altitude 05:44:15 83° 285° (WNW) 978 4.0 -8.9°
Drops below altitude 10° 05:50:30 10° 14° (NNE) 2,720 6.2 -8.3°
Sets 05:53:01 0° 15° (NNE) 3,675 6.9 -8.0°
